Live Position
Loading 3D Globe...
About Foresail-1 Prime
Group: 3 satellites
Description loading...
Upcoming Passes
Passes for default location (London). Set your location on the main map for personalized predictions.
Altitude History
Loading altitude history...
No altitude history available
Two-Line Element Set
1 66778U 25276DS 26111.65246497 .00003638 00000-0 18136-3 0 9992
2 66778 97.4217 185.9751 0001188 342.3397 17.7796 15.18170635 21828
Epoch: Apr 21, 2026 •
Age: 10 hours
Current Status
Altitude 525.2 km
Velocity 7.61 km/s
Sub-Earth Point 82.58°N,
130.78°W
Launch Date Nov 28, 2025
Age 0.3 years
Type other
Technical Details
Classification Payload
Mass 4.00 kg
Dry Mass 4.00 kg
Total Mass 4.00 kg
Length 0.30 m
Diameter 0.10 m
Span 0.30 m
Shape Box
Manufacturer AALTO
Bus Type Cubesat 3U
Phase Status In Orbit
Owner/State AALTO/FI
Most Searched
Loading...